Home > Weather > Aalen > Past weeks

Flag for Germany Past Weather in Aalen, Baden-Württemberg, Germany — Yesterday and Last 2 Weeks

Now
61 °F

Scattered clouds.


Feels Like: 61 °F
Forecast: 50 / 69 °F
Wind: 3 mph from West

Location: Niederstetten

Current Time: Jun 26, 2016 at 10:55:06 PM

Latest Report: Jun 26, 2016 at 9:20 PM


Visibility: N/A

Pressure: 30.09 "Hg

Humidity: 68%

Dew Point: 50 °F

Location of AalenLocation

Past Weather in Aalen — Graph

°F

Aalen Temperature Yesterday

Maximum temperature yesterday: 75 °F (at 4:20 PM)
Minimum temperature yesterday: 59 °F (at 9:20 PM)
Average temperature yesterday: 66 °F

High & Low Weather Summary for the Past Weeks

 TemperatureHumidityPressure
High88 °F (Jun 23, 5:00 PM)100% (Jun 11, 9:20 PM)30.27 "Hg (Jun 11, 9:20 PM)
Low46 °F (Jun 20, 3:20 AM)40% (Jun 24, 5:20 PM)29.56 "Hg (Jun 14, 2:20 PM)
Average61 °F79%29.94 "Hg
* Reported Jun 11 9:20 PM — Jun 26 9:20 PM, Aalen, Weather by CustomWeather, © 2016

Note: Actual official high and low records may vary slightly from our data, if they occured in-between our weather recording intervals... More about our weather records

Advertising

Aalen Weather History for the Previous 24 Hours

Scroll right to see more
 ConditionsComfort  
Time TempWeatherWind HumidityBarometerVisibility
9:20 PM
Sun, Jun 26
61 °FScattered clouds.3 mph68%30.09 "HgN/A
8:20 PM64 °FScattered clouds.6 mph56%30.09 "HgN/A
7:20 PM66 °FScattered clouds.8 mph49%30.09 "HgN/A
6:20 PM66 °FScattered clouds.7 mph49%30.09 "HgN/A
5:20 PM68 °FPassing clouds.7 mph49%30.09 "HgN/A
4:20 PM68 °FScattered clouds.5 mph49%30.09 "HgN/A
3:20 PM66 °FScattered clouds.7 mph49%30.09 "HgN/A
2:20 PM66 °FScattered clouds.7 mph49%30.09 "HgN/A
1:20 PM64 °FScattered clouds.6 mph56%30.09 "HgN/A
12:20 PM63 °FScattered clouds.5 mph64%30.12 "HgN/A
11:20 AM61 °FScattered clouds.6 mph68%30.12 "HgN/A
10:20 AM61 °FScattered clouds.6 mph68%30.12 "HgN/A
9:20 AM59 °FPassing clouds.6 mph72%30.12 "HgN/A
8:20 AM57 °FPassing clouds.6 mph82%30.12 "HgN/A
7:20 AM55 °FPassing clouds.8 mph88%30.09 "HgN/A
6:20 AM54 °FFog.8 mph94%30.09 "Hg1 mi
5:58 AM52 °FFog.6 mph100%30.09 "Hg1 mi
5:20 AM54 °FPassing clouds.5 mph94%30.07 "Hg5 mi
4:20 AM54 °FPassing clouds.6 mph94%30.07 "HgN/A
3:20 AM55 °FPassing clouds.6 mph94%30.07 "HgN/A
2:20 AM55 °FPassing clouds.3 mph94%30.07 "HgN/A
1:20 AM55 °FCool.5 mph94%30.07 "HgN/A
12:20 AM57 °FPassing clouds.3 mph88%30.07 "HgN/A
11:20 PM
Sat, Jun 25
59 °FPassing clouds.8 mph88%30.07 "HgN/A
10:20 PM59 °FScattered clouds.5 mph88%30.04 "HgN/A
Weather by CustomWeather, © 2016

See weather overviewHow to use our weather pages